Ball Ground, GA

9:46 PM EST on February 11, 2016 (GMT -0500)
Canton

Weather History for KCNI - May, 2013

Change the Weather History Date:

Wednesday, May 1, 2013

  Actual Average (KGVL) Record (KGVL)
Temperature  
Mean Temperature 64 °F 64 °F  
Max Temperature 69 °F 75 °F 89 °F (1951)
Min Temperature 60 °F 54 °F 38 °F (1935)
Degree Days  
Heating Degree Days 0 3  
Month to date heating degree days 3  
Since 1 July heating degree days 3028  
Cooling Degree Days 0 2  
Month to date cooling degree days 2  
Year to date cooling degree days 41  
Growing Degree Days 14 (Base 50)    
Moisture  
Dew Point 49 °F    
Average Humidity 60    
Maximum Humidity 82    
Minimum Humidity 40    
Precipitation  
Precipitation 0.00 in 0.12 in 1.46 in (1932)
Month to date precipitation 0.12  
Year to date precipitation 19.00  
Sea Level Pressure  
Sea Level Pressure 30.17 in    
Wind  
Wind Speed 6 mph (East)    
Max Wind Speed 13 mph    
Max Gust Speed 24 mph    
Visibility 10 miles    
Events      
T = Trace of Precipitation, MM = Missing Value Source: NWS Daily Summary

Daily Weather History Graph

Daily Weather History Graph

Search for Another Location

Airport or City:

Trip Planner

Search our weather history database for the weather conditions in past years. The results will help you decide how hot, cold, wet, or windy it might be!

Date:

Astronomy

May. 01, 2013 Rise Set
Actual Time 6:47 AM EDT 8:22 PM EDT
Civil Twilight 6:20 AM EDT 8:49 PM EDT
Nautical Twilight 5:48 AM EDT 9:21 PM EDT
Astronomical Twilight 5:15 AM EDT 9:55 PM EDT
Moon 1:30 AM EDT (5/1) 12:25 PM EDT (5/1)
Length of Visible Light 14h 28m
Length of Day
13h 34m
Waning Gibbous, 59% of the Moon is Illuminated
May 1
Waning Gibbous
May 2
Last Quarter
May 9
New
May 18
First Quarter
May 25
Full

Hourly Weather History & Observations

Time (EDT) Temp. Dew Point Humidity Pressure Visibility Wind Dir Wind Speed Gust Speed Precip Events Conditions
12:15 AM 62.6 °F 53.6 °F 72% 30.13 in 10.0 mi ENE 3.5 mph - N/A   Clear
12:35 AM 60.8 °F 53.6 °F 77% 30.14 in 7.0 mi Calm Calm - N/A   Clear
12:55 AM 62.6 °F 53.6 °F 72% 30.14 in 10.0 mi Calm Calm - N/A   Clear
1:15 AM 60.8 °F 55.4 °F 82% 30.14 in 10.0 mi East 3.5 mph - N/A   Clear
1:35 AM 60.8 °F 55.4 °F 82% 30.15 in 10.0 mi ENE 3.5 mph - N/A   Clear
1:55 AM 60.8 °F 55.4 °F 82% 30.14 in 10.0 mi ENE 4.6 mph - N/A   Clear
2:35 AM 60.8 °F 55.4 °F 82% 30.14 in 10.0 mi East 4.6 mph - N/A   Clear
2:55 AM 60.8 °F 55.4 °F 82% 30.14 in 10.0 mi ENE 5.8 mph - N/A   Clear
3:15 AM 60.8 °F 55.4 °F 82% 30.13 in 10.0 mi ENE 5.8 mph - N/A   Scattered Clouds
3:35 AM 60.8 °F 55.4 °F 82% 30.13 in 10.0 mi ENE 6.9 mph - N/A   Mostly Cloudy
3:55 AM 60.8 °F 55.4 °F 82% 30.13 in 10.0 mi ENE 6.9 mph - N/A   Scattered Clouds
4:15 AM 60.8 °F 55.4 °F 82% 30.13 in 10.0 mi ENE 4.6 mph - N/A   Mostly Cloudy
4:35 AM 60.8 °F 55.4 °F 82% 30.13 in 10.0 mi ENE 6.9 mph - N/A   Overcast
4:55 AM 60.8 °F 55.4 °F 82% 30.13 in 10.0 mi ENE 5.8 mph - N/A   Overcast
5:15 AM 60.8 °F 55.4 °F 82% 30.13 in 10.0 mi East 6.9 mph - N/A   Overcast
5:35 AM 60.8 °F 55.4 °F 82% 30.13 in 10.0 mi ENE 6.9 mph - N/A   Overcast
5:55 AM 60.8 °F 53.6 °F 77% 30.13 in 10.0 mi East 5.8 mph - N/A   Overcast
6:15 AM 60.8 °F 53.6 °F 77% 30.13 in 10.0 mi ENE 8.1 mph - N/A   Overcast
6:35 AM 60.8 °F 51.8 °F 72% 30.14 in 10.0 mi ENE 6.9 mph - N/A   Mostly Cloudy
6:55 AM 60.8 °F 51.8 °F 72% 30.14 in 10.0 mi ENE 8.1 mph - N/A   Scattered Clouds
7:15 AM 60.8 °F 51.8 °F 72% 30.15 in 10.0 mi ENE 9.2 mph - N/A   Scattered Clouds
7:35 AM 60.8 °F 50.0 °F 68% 30.16 in 10.0 mi ENE 8.1 mph 19.6 mph N/A   Clear
7:55 AM 60.8 °F 50.0 °F 68% 30.17 in 10.0 mi ENE 5.8 mph - N/A   Clear
8:15 AM 60.8 °F 50.0 °F 68% 30.18 in 10.0 mi East 6.9 mph - N/A   Clear
8:35 AM 62.6 °F 50.0 °F 63% 30.19 in 10.0 mi East 8.1 mph - N/A   Clear
8:55 AM 62.6 °F 48.2 °F 59% 30.20 in 10.0 mi ENE 11.5 mph 20.7 mph N/A   Scattered Clouds
9:15 AM 62.6 °F 48.2 °F 59% 30.20 in 10.0 mi East 6.9 mph 18.4 mph N/A   Scattered Clouds
9:35 AM 62.6 °F 46.4 °F 55% 30.20 in 10.0 mi East 10.4 mph 21.9 mph N/A   Overcast
9:55 AM 62.6 °F 48.2 °F 59% 30.20 in 10.0 mi ENE 6.9 mph 17.3 mph N/A   Mostly Cloudy
10:15 AM 62.6 °F 48.2 °F 59% 30.21 in 10.0 mi East 9.2 mph - N/A   Mostly Cloudy
10:35 AM 64.4 °F 46.4 °F 52% 30.21 in 10.0 mi East 12.7 mph 21.9 mph N/A   Mostly Cloudy
10:55 AM 66.2 °F 46.4 °F 49% 30.21 in 10.0 mi East 10.4 mph 18.4 mph N/A   Mostly Cloudy
11:15 AM 64.4 °F 46.4 °F 52% 30.21 in 10.0 mi East 8.1 mph 20.7 mph N/A   Mostly Cloudy
11:35 AM 66.2 °F 46.4 °F 49% 30.21 in 10.0 mi East 11.5 mph 16.1 mph N/A   Mostly Cloudy
11:55 AM 68.0 °F 46.4 °F 46% 30.20 in 10.0 mi East 9.2 mph 24.2 mph N/A   Mostly Cloudy
12:15 PM 68.0 °F 46.4 °F 46% 30.21 in 10.0 mi East 12.7 mph 20.7 mph N/A   Mostly Cloudy
12:35 PM 68.0 °F 46.4 °F 46% 30.20 in 10.0 mi East 6.9 mph 16.1 mph N/A   Mostly Cloudy
12:55 PM 68.0 °F 46.4 °F 46% 30.21 in 10.0 mi East 6.9 mph 16.1 mph N/A   Scattered Clouds
1:15 PM 69.8 °F 46.4 °F 43% 30.20 in 10.0 mi ENE 8.1 mph 17.3 mph N/A   Scattered Clouds
1:35 PM 69.8 °F 46.4 °F 43% 30.21 in 10.0 mi East 8.1 mph - N/A   Scattered Clouds
1:55 PM 69.8 °F 46.4 °F 43% 30.20 in 10.0 mi East 8.1 mph 16.1 mph N/A   Scattered Clouds
2:15 PM 69.8 °F 46.4 °F 43% 30.20 in 10.0 mi East 9.2 mph 17.3 mph N/A   Scattered Clouds
2:35 PM 69.8 °F 46.4 °F 43% 30.20 in 10.0 mi ENE 4.6 mph - N/A   Scattered Clouds
2:55 PM 69.8 °F 46.4 °F 43% 30.20 in 10.0 mi East 9.2 mph 17.3 mph N/A   Scattered Clouds
3:15 PM 69.8 °F 46.4 °F 43% 30.19 in 10.0 mi ESE 10.4 mph 17.3 mph N/A   Scattered Clouds
3:35 PM 69.8 °F 44.6 °F 40% 30.18 in 10.0 mi East 11.5 mph 19.6 mph N/A   Scattered Clouds
3:55 PM 69.8 °F 44.6 °F 40% 30.17 in 10.0 mi East 10.4 mph 19.6 mph N/A   Clear
4:15 PM 69.8 °F 44.6 °F 40% 30.17 in 10.0 mi East 11.5 mph 16.1 mph N/A   Clear
4:35 PM 69.8 °F 44.6 °F 40% 30.16 in 10.0 mi ENE 11.5 mph 20.7 mph N/A   Clear
4:55 PM 69.8 °F 46.4 °F 43% 30.16 in 10.0 mi ENE 8.1 mph 17.3 mph N/A   Clear
5:15 PM 69.8 °F 46.4 °F 43% 30.16 in 10.0 mi ENE 6.9 mph 19.6 mph N/A   Clear
5:35 PM 68.0 °F 44.6 °F 43% 30.16 in 10.0 mi ENE 9.2 mph 18.4 mph N/A   Clear
5:55 PM 68.0 °F 44.6 °F 43% 30.16 in 10.0 mi East 11.5 mph 17.3 mph N/A   Clear
6:15 PM 68.0 °F 44.6 °F 43% 30.16 in 10.0 mi ENE 8.1 mph 18.4 mph N/A   Clear
6:35 PM 66.2 °F 44.6 °F 46% 30.16 in 10.0 mi ENE 11.5 mph 17.3 mph N/A   Clear
6:55 PM 66.2 °F 44.6 °F 46% 30.15 in 10.0 mi ENE 10.4 mph 18.4 mph N/A   Clear
7:15 PM 64.4 °F 44.6 °F 49% 30.16 in 10.0 mi East 6.9 mph - N/A   Clear
7:55 PM 64.4 °F 46.4 °F 52% 30.16 in 10.0 mi East 5.8 mph - N/A   Clear
8:15 PM 64.4 °F 46.4 °F 52% 30.17 in 10.0 mi East 5.8 mph - N/A   Clear
8:35 PM 62.6 °F 46.4 °F 55% 30.17 in 10.0 mi East 5.8 mph - N/A   Clear
8:55 PM 62.6 °F 48.2 °F 59% 30.18 in 10.0 mi East 6.9 mph - N/A   Clear
9:15 PM 62.6 °F 48.2 °F 59% 30.18 in 10.0 mi East 9.2 mph - N/A   Clear
9:35 PM 62.6 °F 48.2 °F 59% 30.19 in 10.0 mi East 5.8 mph - N/A   Clear
9:55 PM 62.6 °F 48.2 °F 59% 30.20 in 10.0 mi East 8.1 mph 17.3 mph N/A   Clear
10:15 PM 62.6 °F 48.2 °F 59% 30.21 in 10.0 mi East 6.9 mph - N/A   Clear
10:35 PM 62.6 °F 48.2 °F 59% 30.21 in 10.0 mi East 5.8 mph - N/A   Clear
10:55 PM 60.8 °F 48.2 °F 63% 30.21 in 10.0 mi East 6.9 mph - N/A   Clear
11:15 PM 60.8 °F 48.2 °F 63% 30.22 in 10.0 mi East 8.1 mph - N/A   Clear
11:35 PM 60.8 °F 48.2 °F 63% 30.21 in 10.0 mi East 9.2 mph 16.1 mph N/A   Clear
11:55 PM 60.8 °F 50.0 °F 68% 30.21 in 10.0 mi ENE 5.8 mph - N/A   Clear